When you browse on this site, cookies collect data to enhance your experience and personalize the content and advertising you see.
Visit our Privacy Policy to learn more. By continuing to use the site, you agree to this use of cookies and data.
  • In Austria
  • List of Countries
  • For 7 days
  • Water Temperature
  • Weather Map
  • News
  • Weather Widgets
  • user-avatar
    Login

    Hourly Weather Tegucigalpa

    Today, 25 May, Monday

    Time Temperature Precipitation Wind Pressure Humidity
    00:00 +23°C° 0 mm 1 mps 672 mmHg 91%
    01:00 +23°C° 0 mm 1 mps 671 mmHg 92%
    02:00 +23°C° 0 mm 1 mps 671 mmHg 92%
    03:00 +22°C° 0 mm 1 mps 670 mmHg 93%
    04:00 +22°C° 0 mm 1 mps 671 mmHg 93%
    05:00 +23°C° 0 mm 1 mps 671 mmHg 93%
    06:00 +23°C° 0 mm 1 mps 672 mmHg 92%
    07:00 +25°C° 0 mm 1 mps 673 mmHg 84%
    08:00 +27°C° 0 mm 1 mps 673 mmHg 76%
    09:00 +29°C° 0 mm 1 mps 674 mmHg 68%
    10:00 +30°C° 0 mm 1 mps 674 mmHg 65%
    11:00 +30°C° 0 mm 2 mps 674 mmHg 61%
    12:00 +31°C° 0 mm 2 mps 673 mmHg 57%
    13:00 +31°C° 1 mm 2 mps 673 mmHg 59%
    14:00 +31°C° 1 mm 2 mps 672 mmHg 60%
    15:00 +30°C° 1 mm 2 mps 671 mmHg 61%
    16:00 +29°C° 1.6 mm 2 mps 671 mmHg 69%
    17:00 +27°C° 1.6 mm 1 mps 671 mmHg 76%
    18:00 +26°C° 1.6 mm 1 mps 671 mmHg 83%
    19:00 +25°C° 1.7 mm 1 mps 672 mmHg 84%
    20:00 +25°C° 1.7 mm 1 mps 672 mmHg 85%
    21:00 +22°C° 1.7 mm 0 mps 673 mmHg 86%
    22:00 +22°C° 1.1 mm 0 mps 673 mmHg 87%
    23:00 +22°C° 1.1 mm 0 mps 673 mmHg 89%

    Tomorrow, 26 May, Tuesday

    Time Temperature Precipitation Wind Pressure Humidity
    00:00 +21°C° 1.1 mm 0 mps 673 mmHg 90%
    01:00 +21°C° 0.5 mm 0 mps 672 mmHg 90%
    02:00 +21°C° 0.5 mm 0 mps 672 mmHg 90%
    03:00 +23°C° 0.5 mm 1 mps 671 mmHg 91%
    04:00 +21°C° 0.3 mm 0 mps 671 mmHg 91%
    05:00 +21°C° 0.3 mm 0 mps 672 mmHg 91%
    06:00 +21°C° 0.3 mm 0 mps 672 mmHg 91%
    07:00 +25°C° 0 mm 1 mps 672 mmHg 84%
    08:00 +27°C° 0 mm 1 mps 673 mmHg 76%
    09:00 +29°C° 0 mm 1 mps 674 mmHg 69%
    10:00 +30°C° 0.1 mm 1 mps 674 mmHg 65%
    11:00 +31°C° 0.1 mm 2 mps 674 mmHg 61%
    12:00 +32°C° 0.1 mm 2 mps 674 mmHg 57%
    13:00 +31°C° 1.5 mm 2 mps 673 mmHg 60%
    14:00 +30°C° 1.5 mm 2 mps 672 mmHg 64%
    15:00 +30°C° 1.5 mm 1 mps 672 mmHg 68%
    16:00 +28°C° 2.1 mm 1 mps 672 mmHg 74%
    17:00 +27°C° 2.1 mm 1 mps 671 mmHg 81%
    18:00 +26°C° 2.1 mm 1 mps 671 mmHg 87%
    19:00 +25°C° 2.8 mm 1 mps 672 mmHg 88%
    20:00 +24°C° 2.8 mm 1 mps 673 mmHg 89%
    21:00 +24°C° 2.8 mm 1 mps 673 mmHg 89%
    22:00 +24°C° 0.3 mm 1 mps 673 mmHg 89%
    23:00 +24°C° 0.3 mm 1 mps 673 mmHg 88%

    Day after tomorrow, 27 May, Wednesday

    Time Temperature Precipitation Wind Pressure Humidity
    00:00 +23°C° 0.3 mm 1 mps 673 mmHg 88%
    01:00 +23°C° 0.1 mm 1 mps 672 mmHg 88%
    02:00 +21°C° 0.1 mm 0 mps 672 mmHg 88%
    03:00 +21°C° 0.1 mm 0 mps 672 mmHg 88%
    04:00 +21°C° 0.1 mm 0 mps 672 mmHg 88%
    05:00 +21°C° 0.1 mm 0 mps 673 mmHg 88%
    06:00 +23°C° 0.1 mm 1 mps 673 mmHg 88%
    07:00 +25°C° 0 mm 1 mps 673 mmHg 83%
    08:00 +26°C° 0 mm 1 mps 674 mmHg 78%
    09:00 +28°C° 0 mm 1 mps 675 mmHg 73%
    10:00 +29°C° 0.1 mm 2 mps 674 mmHg 67%
    11:00 +30°C° 0.1 mm 2 mps 674 mmHg 61%
    12:00 +31°C° 0.1 mm 2 mps 674 mmHg 55%
    13:00 +31°C° 0.3 mm 2 mps 673 mmHg 55%
    14:00 +31°C° 0.3 mm 2 mps 673 mmHg 54%
    15:00 +31°C° 0.3 mm 2 mps 672 mmHg 54%
    16:00 +29°C° 0.5 mm 1 mps 672 mmHg 61%
    17:00 +28°C° 0.5 mm 1 mps 672 mmHg 69%
    18:00 +26°C° 0.5 mm 1 mps 672 mmHg 76%
    19:00 +25°C° 0.9 mm 1 mps 673 mmHg 79%
    20:00 +23°C° 0.9 mm 0 mps 673 mmHg 82%
    21:00 +22°C° 0.9 mm 0 mps 673 mmHg 84%
    22:00 +22°C° 0.2 mm 0 mps 673 mmHg 86%
    23:00 +24°C° 0.2 mm 1 mps 673 mmHg 88%

    28 May, Thursday

    Time Temperature Precipitation Wind Pressure Humidity
    00:00 +23°C° 0.2 mm 1 mps 673 mmHg 90%
    01:00 +23°C° 0.2 mm 1 mps 673 mmHg 91%
    02:00 +23°C° 0.2 mm 1 mps 672 mmHg 93%
    03:00 +22°C° 0.2 mm 1 mps 672 mmHg 94%
    04:00 +22°C° 0 mm 1 mps 672 mmHg 94%
    05:00 +22°C° 0 mm 1 mps 673 mmHg 95%
    06:00 +22°C° 0 mm 1 mps 673 mmHg 95%
    07:00 +24°C° 0.1 mm 1 mps 674 mmHg 88%
    08:00 +25°C° 0.1 mm 1 mps 674 mmHg 80%
    09:00 +27°C° 0.1 mm 1 mps 675 mmHg 73%
    10:00 +28°C° 0.5 mm 2 mps 675 mmHg 68%
    11:00 +29°C° 0.5 mm 2 mps 675 mmHg 63%
    12:00 +30°C° 0.5 mm 3 mps 674 mmHg 58%
    13:00 +29°C° 1.7 mm 2 mps 674 mmHg 64%
    14:00 +28°C° 1.7 mm 1 mps 673 mmHg 69%
    15:00 +27°C° 1.7 mm 1 mps 672 mmHg 75%
    16:00 +26°C° 0.9 mm 1 mps 672 mmHg 79%
    17:00 +25°C° 0.9 mm 1 mps 672 mmHg 83%
    18:00 +24°C° 0.9 mm 1 mps 673 mmHg 86%
    19:00 +23°C° 0.1 mm 1 mps 673 mmHg 87%
    20:00 +23°C° 0.1 mm 1 mps 673 mmHg 87%
    21:00 +23°C° 0.1 mm 1 mps 674 mmHg 87%
    22:00 +23°C° 0 mm 1 mps 673 mmHg 88%
    23:00 +22°C° 0 mm 1 mps 673 mmHg 88%

    29 May, Friday

    Time Temperature Precipitation Wind Pressure Humidity
    00:00 +22°C° 0 mm 1 mps 673 mmHg 89%
    01:00 +22°C° 0 mm 1 mps 673 mmHg 91%
    02:00 +21°C° 0 mm 1 mps 672 mmHg 93%
    03:00 +21°C° 0 mm 1 mps 672 mmHg 95%
    04:00 +21°C° 0 mm 1 mps 672 mmHg 95%
    05:00 +21°C° 0 mm 1 mps 672 mmHg 95%
    06:00 +21°C° 0 mm 1 mps 672 mmHg 94%
    07:00 +23°C° 0 mm 2 mps 673 mmHg 87%
    08:00 +24°C° 0 mm 2 mps 674 mmHg 79%
    09:00 +26°C° 0 mm 2 mps 674 mmHg 71%
    10:00 +27°C° 0 mm 2 mps 674 mmHg 64%
    11:00 +28°C° 0 mm 2 mps 674 mmHg 57%
    12:00 +30°C° 0 mm 2 mps 674 mmHg 50%
    13:00 +29°C° 0.3 mm 3 mps 673 mmHg 53%
    14:00 +29°C° 0.3 mm 3 mps 673 mmHg 55%
    15:00 +29°C° 0.3 mm 3 mps 672 mmHg 58%
    16:00 +27°C° 0.8 mm 2 mps 672 mmHg 65%
    17:00 +26°C° 0.8 mm 1 mps 672 mmHg 72%
    18:00 +24°C° 0.8 mm 1 mps 672 mmHg 79%
    19:00 +24°C° 0.7 mm 1 mps 673 mmHg 81%
    20:00 +21°C° 0.7 mm 0 mps 673 mmHg 84%
    21:00 +20°C° 0.7 mm 0 mps 673 mmHg 87%
    22:00 +22°C° 0.3 mm 1 mps 673 mmHg 88%
    23:00 +22°C° 0.3 mm 1 mps 673 mmHg 89%

    30 May, Saturday

    Time Temperature Precipitation Wind Pressure Humidity
    00:00 +22°C° 0.3 mm 1 mps 673 mmHg 91%
    01:00 +22°C° 0 mm 1 mps 672 mmHg 91%
    02:00 +21°C° 0 mm 1 mps 672 mmHg 92%
    03:00 +21°C° 0 mm 1 mps 672 mmHg 92%
    04:00 +21°C° 0.1 mm 1 mps 671 mmHg 92%
    05:00 +20°C° 0.1 mm 2 mps 671 mmHg 93%
    06:00 +20°C° 0.1 mm 2 mps 671 mmHg 93%
    07:00 +20°C° 0.5 mm 2 mps 672 mmHg 93%
    08:00 +20°C° 0.5 mm 2 mps 672 mmHg 92%
    09:00 +20°C° 0.5 mm 2 mps 672 mmHg 92%
    10:00 +20°C° 1 mm 2 mps 672 mmHg 92%
    11:00 +20°C° 1 mm 2 mps 672 mmHg 92%
    12:00 +20°C° 1 mm 2 mps 672 mmHg 92%
    13:00 +20°C° 1.6 mm 2 mps 671 mmHg 93%
    14:00 +20°C° 1.6 mm 2 mps 671 mmHg 93%
    15:00 +19°C° 1.6 mm 2 mps 671 mmHg 94%
    16:00 +19°C° 5.1 mm 2 mps 671 mmHg 95%
    17:00 +19°C° 5.1 mm 3 mps 671 mmHg 96%
    18:00 +19°C° 5.1 mm 3 mps 671 mmHg 97%
    19:00 +18°C° 4.2 mm 3 mps 671 mmHg 97%
    20:00 +18°C° 4.2 mm 3 mps 671 mmHg 97%
    21:00 +18°C° 4.2 mm 2 mps 671 mmHg 98%
    22:00 +18°C° 8.7 mm 2 mps 671 mmHg 98%
    23:00 +18°C° 8.7 mm 2 mps 671 mmHg 98%
    Show more